Weather History for Tallahassee, FL

Change the Weather History Date:

Saturday, May 31, 2014

  Actual Average Record
Temperature  
Mean Temperature 81 °F 78 °F  
Max Temperature 93 °F 90 °F 99 °F (1927)
Min Temperature 69 °F 67 °F 51 °F (1971)
Degree Days  
Heating Degree Days 0    
Month to date heating degree days 1  
Since 1 July heating degree days 1360  
Cooling Degree Days 16    
Month to date cooling degree days 330  
Year to date cooling degree days 489  
Growing Degree Days 30 (Base 50)    
Moisture  
Dew Point 67 °F    
Average Humidity 67    
Maximum Humidity 90    
Minimum Humidity 44    
Precipitation  
Precipitation 0.24 in 0.16 in 2.90 in (1901)
Month to date precipitation 1.35 3.47  
Year to date precipitation 32.09 21.66  
Sea Level Pressure  
Sea Level Pressure 30.03 in    
Wind  
Wind Speed 4 mph (East)    
Max Wind Speed 26 mph    
Max Gust Speed 32 mph    
Visibility 9 miles    
Events Rain , Thunderstorm    
T = Trace of Precipitation, MM = Missing Value Source: NWS Daily Summary

Daily Weather History Graph

Daily Weather History Graph

Search for Another Location

Airport:

Trip Planner

Search our weather history database for the weather conditions in past years. The results will help you decide how hot, cold, wet, or windy it might be!

Date:

Astronomy

May. 31, 2014 Rise Set
Actual Time 6:36 AM EDT 8:34 PM EDT
Civil Twilight 6:09 AM EDT 9:01 PM EDT
Nautical Twilight 5:36 AM EDT 9:34 PM EDT
Astronomical Twilight 5:01 AM EDT 10:09 PM EDT
Moon 9:07 AM EDT (5/31) 10:58 PM EDT (5/31)
Length of Visible Light 14h 52m
Length of Day
13h 58m
Waxing Crescent, 8% of the Moon is Illuminated
May 31
Waxing Crescent
Jun 5
First Quarter
Jun 13
Full
Jun 19
Last Quarter
Jun 27
New

Hourly Weather History & Observations

Time (EDT) Temp. Heat Index Dew Point Humidity Pressure Visibility Wind Dir Wind Speed Gust Speed Precip Events Conditions
12:53 AM 73.0 °F - 66.9 °F 81% 30.04 in 10.0 mi Calm Calm - N/A   Clear
1:53 AM 73.0 °F - 66.0 °F 79% 30.03 in 10.0 mi East 3.5 mph - N/A   Clear
2:53 AM 73.0 °F - 66.0 °F 79% 30.02 in 10.0 mi Calm Calm - N/A   Clear
3:53 AM 71.1 °F - 66.0 °F 84% 30.02 in 10.0 mi Calm Calm - N/A   Clear
4:53 AM 70.0 °F - 66.0 °F 87% 30.02 in 10.0 mi Calm Calm - N/A   Clear
5:53 AM 71.1 °F - 66.0 °F 84% 30.04 in 10.0 mi ENE 4.6 mph - N/A   Mostly Cloudy
6:53 AM 71.1 °F - 66.0 °F 84% 30.04 in 10.0 mi East 4.6 mph - N/A   Mostly Cloudy
7:53 AM 73.0 °F - 66.9 °F 81% 30.05 in 10.0 mi East 6.9 mph - N/A   Mostly Cloudy
8:53 AM 79.0 °F - 66.9 °F 66% 30.05 in 10.0 mi ESE 5.8 mph - N/A   Mostly Cloudy
9:53 AM 81.0 °F 84.1 °F 69.1 °F 67% 30.06 in 10.0 mi ENE 5.8 mph - N/A   Mostly Cloudy
10:53 AM 84.2 °F 87.3 °F 68.0 °F 58% 30.06 in 10.0 mi Variable 5.8 mph - N/A   Mostly Cloudy
11:53 AM 87.1 °F 89.9 °F 66.9 °F 51% 30.05 in 10.0 mi NNE 5.8 mph - N/A   Mostly Cloudy
12:53 PM 89.1 °F 91.0 °F 64.9 °F 45% 30.04 in 10.0 mi NE 5.8 mph - N/A   Mostly Cloudy
1:53 PM 91.0 °F 93.8 °F 66.0 °F 44% 30.03 in 10.0 mi ESE 6.9 mph - N/A   Mostly Cloudy
2:53 PM 90.0 °F 91.7 °F 64.9 °F 43% 30.01 in 10.0 mi East 6.9 mph - N/A   Mostly Cloudy
3:53 PM 90.0 °F 91.7 °F 64.9 °F 43% 29.97 in 10.0 mi NE 5.8 mph - N/A   Mostly Cloudy
4:53 PM 89.6 °F 91.1 °F 64.4 °F 43% 29.98 in 8.0 mi NE 5.8 mph - N/A Rain Rain
5:32 PM 89.6 °F 91.1 °F 64.4 °F 43% 30.01 in 5.0 mi South 10.4 mph - N/A Rain , Thunderstorm Heavy Thunderstorms and Rain
5:53 PM 81.3 °F 82.2 °F 61.3 °F 51% 29.99 in 10.0 mi SSW 6.9 mph - N/A Rain , Thunderstorm Thunderstorms and Rain
6:53 PM 85.1 °F 94.1 °F 75.4 °F 73% 29.98 in 10.0 mi SSW 4.6 mph - N/A   Mostly Cloudy
7:53 PM 80.6 °F 86.2 °F 75.4 °F 84% - 10.0 mi Calm Calm - N/A   Mostly Cloudy
8:53 PM 75.0 °F - 64.9 °F 71% 30.05 in 3.0 mi East 21.9 mph 32.2 mph 0.02 in Rain Heavy Rain
8:55 PM 73.4 °F - 64.4 °F 73% 30.05 in 1.8 mi East 20.7 mph - 0.04 in Rain Heavy Rain
9:42 PM 71.6 °F - 66.2 °F 83% 30.06 in 10.0 mi ENE 4.6 mph - 0.21 in Rain Light Rain
9:53 PM 71.1 °F - 66.9 °F 87% 30.05 in 8.0 mi Calm Calm - 0.22 in Rain Light Rain
10:53 PM 71.1 °F - 68.0 °F 90% 30.04 in 10.0 mi Calm Calm - 0.00 in   Scattered Clouds
11:53 PM 72.0 °F - 68.0 °F 87% 30.06 in 10.0 mi Calm Calm - N/A   Clear